CamptonHillsWeather.com

Find the Weather for any City, State  
or Zipcode, or Country:

Campton Hills, IL Weather
Local Radar

Local Radar

Graphs, Details
Graphs and Gauges
Detailed Weather
Detailed Reports
Ajax Version (old)
Central Kane Co Summary
Davis Current Weather Graphs
Davis 24 Hour Weather History

CW3778 Data

Weather Underground
Maps
Temperature
Heat Index
Windchill
Humidity
Radar
Dew Point
Wind
Visibility
Visible Satellite
Satellite
Fronts
Snow Depth
Jet Stream
Flight Rules
Forecast Maps
Temperature Forecast
Maximum Temperature Forecast
Minimum Temperature Forecast
Dewpoint Forecast
Prevalent Weather
12Hr Probability of Precip.
Sky Cover
Health Maps
UV Forecast
Air Quality
Peak Air Quality Index
Weather Station
Davis Instruments Vantage Pro
Current Conditions [Select Refresh to Update]

Updated: 12:47pm on 4/1/15

(location)
Currently:
68.0F

Clear
Clear

High: 68.0 F< 
(12:45pm
Low: 36.6 F 
(7:12am)
Wind: S 2 mph
Light Air
Gust: 9 mph
Today's High Wind: 12 mph (12:16pm)
Humidity: 41%
Pressure: 30.00 in  (Falling
Pressure Rate: -0.023 in/hr
Dew Point: 43.4F
Wind Chill: 68.0 F
Heat Index (feels like): 68.0 F
Comfort Level: Comfortable
Temperature Rate:  4.08F/hr
 
5 Day Forecast
 
Thu Fri Sat Sun Mon
Clear Clear Clear Clear Clear
T-storms Chance Rain Partly Cloudy Chance Rain Chance Rain
65 47 51 56 53
41 27 34 37 43

Records and Normals
 
Temperature Forecast Normal Record
High 65 55 83
(2010)
Low 41 33 24
(2002)
 
Links
 
 
Weather Advisories
No Advisories
Full Advisory Text...
Weather Map

Web Cam

Almanac
 
Sunrise:  
6:35am
Moonrise: 
4:55pm

Moon Phase:
92%

Sunset: 
7:17pm
Moonset:  
5:11am
 Star Chart...
Rainfall Totals
Hourly Rain 0.00 in
Daily Rain: 0.00 in
Monthly Rain: 0.00 in
Yearly Rain: 1.98 in
Normal Rain, month to date: 0.50 in
Normal Rain, year to date: 2.33 in
Link to Village of Campton Hills Map

Link to Counties of Illinois Map

Local Weather Exchange Network
Station ID City 
(Click for Map Location)
Neighborhood 
(Click for History)
Last Update (Date & Time) Temperature
 ()
Dew
Point ()
Humidity 
(%)
Wind 
(mph)
from the Wind Gust 
(mph) 
Pressure(in) Hourly
Rain(in)
KILSTCHA10 St. Charles Hunt Club 04/01 12:42:19 70.0 32.0 24 3 SSE 5 29.53 0.00
KILWAYNE4 Wayne Hampton Course 04/01 12:40:54 66.4 47.0 50 0 North 0 30.09 0.00
KILSAINT7 Saint Charles Silver Glen 04/01 12:42:20 67.1 38.0 34 2 SSW 2 29.57 0.00
KILSOUTH6 South Elgin Thornwood 04/01 12:26:21 68.5 44.0 42 4 SW 0 29.89 0.00
KILCAMPT3 Campton Hills Campton Hills 04/01 12:42:20 70.3 36.0 28 6 South 9 30.01 0.00
KILSAINT6 Saint Charles 3 Lakes 04/01 12:34:29 72.9 44.0 36 5 SW 0 29.73 0.00
KILSAINT9 Saint Charles Fox Chase 04/01 12:42:09 68.4 37.0 32 2 SE 5 29.98 0.00
KILGENEV6 Geneva Dover Ridge 04/01 12:42:13 66.8 43.0 42 10 SSW 10 29.98 0.00
KILGENEV10 Geneva Southampton Drive 04/01 12:41:07 70.0 48.0 46 0 North 0 30.06 0.00
KILSTCHA8 St. Charles Ronzheimer Ave. & S. Tyler Rd. 04/01 12:42:11 70.4 44.0 38 5 SSE 10 29.98 0.00
KILGENEV9 Geneva Saint Andrews Circle 04/01 12:40:44 64.9 47.0 51 0 North 0 30.06 0.00
KILGENEV3 Geneva Mill Creek (NE) 04/01 12:42:15 67.8 43.0 40 0 SE 12 29.99 0.00
KILSTCHA1 St Charles CamptonHillsWeather.com Central Kane County 04/01 12:42:20 68.0 44.0 42 4 SSE 9 30.00 0.00
KILGENEV7 Geneva Eldorado Drive 04/01 12:40:48 66.0 44.0 45 0 North 0 29.92 0.00
KILSOUTH5 South Elgin Concord Park 04/01 12:30:57 68.2 44.0 41 5 ESE 0 29.76 0.00
KILGENEV2 Geneva Mill Creek 04/01 12:41:56 67.5 42.0 40 5 SE 13 29.95 0.00
KILGENEV12 Geneva Crego Place 04/01 12:41:08 65.8 46.0 48 0 North 0 29.85 0.00
KILBATAV7 Batavia Charleston Street 04/01 12:40:46 64.8 47.0 53 0 North 0 30.06 0.00
KILBATAV1 Batavia Tri-Cities on the Fox River 04/01 12:41:01 70.1 39.0 32 4 SSE 13 30.01 0.00
KILELBUR10 Elburn Prairie Valley North 04/01 12:42:20 68.7 41.0 37 6 SE 10 30.09 0.00
KILELBUR9 Elburn Griffith Avenue 04/01 12:40:23 68.0 44.0 42 0 North 0 29.22 0.00
KILELBUR5 Elburn Prairie Highlands 04/01 12:40:16 67.7 44.0 43 1 SE 10 29.98 0.00
KILWESTC12 West Chicago Woodland Avenue 04/01 12:41:13 66.7 50.0 54 0 North 0 30.06 0.00
KILBATAV3 Batavia West Batavia 04/01 12:37:30 67.9 46.0 46 1 SW 0 29.98 0.00
KILELBUR6 Elburn Columbine Square 04/01 12:36:04 67.5 43.0 42 4 South 13 29.95 0.00
KILBATAV5 Batavia Fermi National Accelerator Laboratory 04/01 12:36:00 68.5 42.0 39 3 SSE 12 29.95 0.00
KILELBUR8 Elburn Columbine 04/01 12:41:14 69.9 42.0 37 3 SSE 12 29.97 0.00
KILWESTC5 West Chicago THEBROWNHOUSE.ORG 04/01 12:42:17 70.0 36.0 29 0 SW 0 29.98 0.00
KILWESTC8 West Chicago Ingalton Hills Estates 04/01 12:42:17 69.0 39.0 34 4 ESE 4 29.98 0.00
KILNORTH11 North Aurora Waterford Oaks 04/01 12:42:20 69.1 42.0 38 8 South 15 29.98 0.00
KILELGIN10 Elgin Wing Park 04/01 12:42:19 70.5 41.0 34 5 SSW 9 30.00 0.00
MUP188 Elburn MesoWest 04/01 11:15:00 65.0 0.0 0 0 North 0 0.00 0.00
KILELGIN17 Elgin Springbrook Court 04/01 12:40:56 68.9 46.0 43 0 North 0 29.86 0.00
KILELGIN14 Elgin Elgin, IL 04/01 12:42:19 67.8 41.0 38 6 SSE 6 29.93 0.00
MUP431 West Chicago MesoWest 04/01 11:25:00 62.0 0.0 0 0 North 0 0.00 0.00
KDPA Chicago DuPage Official Station 04/01 11:52:00 65.0 38.0 37 13 South --- 30.02 ---
KARR Aurora Official Station 04/01 11:52:00 66.0 37.0 34 8 South --- 30.01 ---
KDKB DeKalb Official Station 04/01 12:35:00 68.0 37.0 32 14 South --- 29.99 ---
KORD Chicago Official Station 04/01 11:51:00 63.0 38.0 40 8 South --- 30.02 ---
Full Advisory Text
No Warnings

Ambient Weather and Weather Underground
 Never base important decisions on this or any weather information obtained from the Internet
Updated Automatically by Ambient Weather's Virtual Weather Station  V13.01